This is the latest recevied weather packets stored in our database for station/object IT9KWW-13. If no packets are shown the sender has not sent any weather packets the latest 1 day(s).
| Time | Temp. | Humidity | Pressure | Rain* | Wind** | Luminosity | Snow |
|---|---|---|---|---|---|---|---|
| 1778053198 | 21.11° C | 72% | 1011.8 hPa | 0 mm | - | - | - |
| 1778052706 | 21.11° C | 72% | 1012.9 hPa | 0 mm | - | - | - |
| 1778052586 | 21.11° C | 71% | 1012.9 hPa | 0 mm | - | - | - |
| 1778052454 | 21.11° C | 72% | 1012.9 hPa | 0 mm | - | - | - |
| 1778052214 | 21.11° C | 74% | 1012.9 hPa | 0 mm | - | - | - |
| 1778051710 | 21.11° C | 71% | 1012.9 hPa | 0 mm | - | - | - |
| 1778051590 | 21.11° C | 71% | 1012.9 hPa | 0 mm | - | - | - |
| 1778051338 | 21.11° C | 74% | 1012.9 hPa | 0 mm | - | - | - |
| 1778051218 | 21.11° C | 74% | 1012.9 hPa | 0 mm | - | - | - |
| 1778050606 | 20° C | 73% | 1012.9 hPa | 0 mm | - | - | - |
| 1778050486 | 19.44° C | 74% | 1012.9 hPa | 0 mm | - | - | - |
| 1778049862 | 18.89° C | 78% | 1012.9 hPa | 0 mm | - | - | - |
| 1778049742 | 18.33° C | 79% | 1012.9 hPa | 0 mm | - | - | - |
| 1778049130 | 16.67° C | 84% | 1012.9 hPa | 0 mm | - | - | - |
| 1778048398 | 16.11° C | 85% | 1012.9 hPa | 0 mm | - | - | - |
| 1778048038 | 16.11° C | 85% | 1012.9 hPa | 0 mm | - | - | - |
| 1778047306 | 15.56° C | 86% | 1012.9 hPa | 0 mm | - | - | - |
| 1778046562 | 15° C | 88% | 1011.8 hPa | 0 mm | - | - | - |
| 1778046202 | 15° C | 89% | 1011.8 hPa | 0 mm | - | - | - |
| 1778045842 | 15° C | 90% | 1011.8 hPa | 0 mm | - | - | - |
| 1778045482 | 15° C | 90% | 1011.8 hPa | 0 mm | - | - | - |
| 1778045110 | 15° C | 90% | 1011.8 hPa | 0 mm | - | - | - |
| 1778044378 | 14.44° C | 92% | 1011.8 hPa | 0 mm | - | - | - |
| 1778044257 | 14.44° C | 92% | 1011.8 hPa | 0 mm | - | - | - |
| 1778044018 | 13.89° C | 92% | 1011.8 hPa | 0 mm | - | - | - |
* Rain latest hour (hover to see other rain measurements)
** Current wind speed in m/s (hover to see current wind gust speed)